Simultaneous Nadir Overpasses (SNOs) Predictions

Prediction of SNOs between METOP-A and NOAA-19 Satellite Orbit:

Table of predicted SNOs for the next 14.0 days since TLE Epoch: 6/23/2017
Index Date (METOP-A) Time (METOP-A) Lat,Lon (METOP-A) SZA (METOP-A ) Date (NOAA-19) Time (NOAA-19) Lat,Lon (NOAA-19) SZA (NOAA-19 ) Distance(km) Time Diff (sec)
1 06/30/2017 07:44:05 77.37, 68.77 54.18 06/30/2017 07:43:00 77.35, 68.82 54.16 2.21 65
2 06/30/2017 08:34:47 -77.34,-124.03 125.85 06/30/2017 08:33:58 -77.36,-123.94 125.84 2.78 49
3 06/30/2017 09:25:26 77.35, 43.35 54.17 06/30/2017 09:25:00 77.33, 43.43 54.15 3.07 26
4 06/30/2017 10:16:08 -77.32,-149.45 125.87 06/30/2017 10:15:58 -77.33,-149.33 125.85 3.19 10
5 06/30/2017 11:06:48 77.33, 17.92 54.15 06/30/2017 11:07:02 77.35, 17.84 54.17 2.61 14
6 06/30/2017 11:57:30 -77.30,-174.87 125.88 06/30/2017 11:57:59 -77.31,-174.73 125.87 3.73 29
7 06/30/2017 12:48:10 77.31, -7.50 54.13 06/30/2017 12:49:03 77.32, -7.55 54.15 1.70 53
8 06/30/2017 13:38:51 -77.33, 159.89 125.85 06/30/2017 13:40:00 -77.29, 159.88 125.89 4.27 69




NCC Satellite Simultaneous Nadir Overpasses (SNOs) Prediction Service
